This demonstration page uses our WeatherBlox Daily Observations layout. Learn more.

Left ArrowRight Arrow

Hourly Observations for November 26, 2015

Temp ( °F °C ) Dew Point ( °F °C ) Humidity (%) Winds ( mph kmh ) Pressure ( in mb ) Visibility ( mi km ) Precip ( " mm )
12:53 am 00:53 Clear 3 -16.1 -2 -18.9 79 79 SW 16 26 30.53 1034 10 16 0.00 0.00
1:53 am 01:53 Clear 4 -15.6 -1 -18.3 80 80 SW 16 26 30.53 1034 10 16 0.00 0.00
2:53 am 02:53 Clear 4 -15.6 -1 -18.3 80 80 SW 15 24 30.54 1034 10 16 0.00 0.00
3:53 am 03:53 Clear 2 -16.7 -3 -19.4 80 80 SW 17 28 30.57 1035 10 16 0.00 0.00
4:53 am 04:53 Clear 0 -17.8 -5 -20.6 79 79 SW 10 17 30.60 1036 10 16 0.00 0.00
5:53 am 05:53 Clear 0 -17.8 -5 -20.6 79 79 SW 10 17 30.63 1037 10 16 0.00 0.00
6:53 am 06:53 Clear -2 -18.9 -6 -21.1 83 83 SW 13 20 30.66 1038 10 16 0.00 0.00
7:53 am 07:53 Sunny -4 -20 -8 -22.2 83 83 SW 13 20 30.70 1040 10 16 0.00 0.00
8:53 am 08:53 Sunny -2 -18.9 -7 -21.7 79 79 WSW 10 17 30.71 1040 10 16 0.00 0.00
9:53 am 09:53 Sunny 2 -16.7 -3 -19.4 80 80 WSW 10 17 30.72 1040 10 16 0.00 0.00
10:53 am 10:53 Sunny 6 -14.4 0 -17.8 76 76 WSW 8 13 30.73 1041 10 16 0.00 0.00
11:53 am 11:53 Sunny 10 -12.2 2 -16.7 69 69 SW 10 17 30.71 1040 10 16 0.00 0.00
12:53 pm 12:53 Sunny 13 -10.6 6 -14.4 74 74 SSW 9 15 30.69 1039 10 16 0.00 0.00
1:53 pm 13:53 Sunny 15 -9.4 7 -13.9 70 70 SW 7 11 30.67 1039 10 16 0.00 0.00
2:53 pm 14:53 Sunny 13 -10.6 6 -14.4 74 74 SW 10 17 30.66 1038 10 16 0.00 0.00
3:53 pm 15:53 Sunny 10 -12.2 4 -15.6 76 76 SW 9 15 30.68 1039 10 16 0.00 0.00
4:53 pm 16:53 Clear 6 -14.4 2 -16.7 83 83 SW 6 9 30.68 1039 10 16 0.00 0.00
5:53 pm 17:53 Clear 2 -16.7 -2 -18.9 83 83 WSW 3 6 30.70 1040 10 16 0.00 0.00
6:53 pm 18:53 Clear 2 -16.7 -1 -18.3 88 88 Calm 30.69 1039 10 16 0.00 0.00
7:53 pm 19:53 Clear 1 -17.2 0 -17.8 95 95 Calm 30.69 1039 10 16 0.00 0.00
8:53 pm 20:53 Clear -4 -20 -7 -21.7 86 86 Calm 30.69 1039 10 16 0.00 0.00
9:53 pm 21:53 Clear -4 -20 -6 -21.1 91 91 Calm 30.67 1039 10 16 0.00 0.00
10:53 pm 22:53 Clear 1 -17.2 -2 -18.9 87 87 N 5 7 30.65 1038 10 16 0.00 0.00
11:53 pm 23:53 Clear -6 -21.1 -9 -22.8 86 86 ESE 6 9 30.65 1038 10 16 0.00 0.00

Powered by AerisWeather